This is the latest recevied weather packets stored in our database for station/object AD0YN. If no packets are shown the sender has not sent any weather packets the latest 10 day(s).
| Time | Temp. | Humidity | Pressure | Rain* | Wind** | Luminosity | Snow |
|---|---|---|---|---|---|---|---|
| 1777012137 | 14.44° C | 94% | 1005.2 hPa | 0 mm | - | 0 W/m² | - |
| 1777011833 | 14.44° C | 94% | 1005.3 hPa | 0 mm | - | 0 W/m² | - |
| 1777011530 | 14.44° C | 94% | 1005.2 hPa | 0 mm | - | 0 W/m² | - |
| 1777011227 | 14.44° C | 94% | 1005.3 hPa | 0 mm | - | 0 W/m² | - |
| 1777010924 | 14.44° C | 94% | 1005 hPa | 0 mm | - | 0 W/m² | - |
| 1777010620 | 14.44° C | 95% | 1003.6 hPa | 0 mm | - | 0 W/m² | - |
| 1777010316 | 14.44° C | 95% | 1001.4 hPa | 3.05 mm | - | 0 W/m² | - |
| 1777010013 | 14.44° C | 95% | 1001.5 hPa | 4.32 mm | - | 0 W/m² | - |
| 1777009709 | 14.44° C | 95% | 1004.2 hPa | 6.6 mm | - | 0 W/m² | - |
| 1777009406 | 14.44° C | 95% | 1005.1 hPa | 4.83 mm | - | 0 W/m² | - |
| 1777009101 | 14.44° C | 95% | 1005.1 hPa | 3.05 mm | - | 0 W/m² | - |
| 1777008800 | 14.44° C | 95% | 1005.1 hPa | 3.56 mm | - | 0 W/m² | - |
| 1777008495 | 14.44° C | 95% | 1004.1 hPa | 6.1 mm | - | 0 W/m² | - |
| 1777008193 | 14.44° C | 94% | 1004.1 hPa | 7.87 mm | - | 0 W/m² | - |
| 1777007890 | 15° C | 94% | 1004.8 hPa | 7.87 mm | - | 0 W/m² | - |
| 1777007587 | 15° C | 94% | 1005.5 hPa | 6.1 mm | - | 0 W/m² | - |
| 1777007283 | 15° C | 94% | 1005.6 hPa | 6.1 mm | - | 0 W/m² | - |
| 1777006981 | 15° C | 94% | 1005.7 hPa | 4.83 mm | - | 0 W/m² | - |
| 1777006677 | 15° C | 94% | 1005.6 hPa | 4.83 mm | - | 0 W/m² | - |
| 1777006372 | 15° C | 94% | 1005.2 hPa | 4.83 mm | - | 0 W/m² | - |
| 1777006069 | 15° C | 93% | 1004.7 hPa | 4.32 mm | - | 0 W/m² | - |
| 1777005766 | 15° C | 93% | 1004.6 hPa | 3.05 mm | - | 0 W/m² | - |
* Rain latest hour (hover to see other rain measurements)
** Current wind speed in m/s (hover to see current wind gust speed)